This is the latest recevied weather packets stored in our database for station/object EA7OC-10. If no packets are shown the sender has not sent any weather packets the latest 10 day(s).
| Time | Temp. | Humidity | Pressure | Rain* | Wind** | Luminosity | Snow |
|---|---|---|---|---|---|---|---|
| 1778012981 | 20.56° C | 26% | 1013.2 hPa | - | - | - | - |
| 1778012081 | 21.11° C | 26% | 1013 hPa | - | - | - | - |
| 1778011180 | 21.11° C | 26% | 1012.9 hPa | - | - | - | - |
| 1778010280 | 22.22° C | 26% | 1012.8 hPa | - | - | - | - |
| 1778009380 | 22.78° C | 26% | 1012.5 hPa | - | - | - | - |
| 1778008478 | 23.89° C | 26% | 1012.5 hPa | - | - | - | - |
| 1778006685 | 26.11° C | 26% | 1012.4 hPa | - | - | - | - |
| 1778005785 | 27.78° C | 26% | 1012.3 hPa | - | - | - | - |
| 1778004885 | 28.89° C | 26% | 1012.2 hPa | - | - | - | - |
| 1778003985 | 30.56° C | 26% | 1012.2 hPa | - | - | - | - |
| 1778003085 | 30.56° C | 27% | 1012.2 hPa | - | - | - | - |
| 1778002185 | 31.67° C | 27% | 1012.2 hPa | - | - | - | - |
| 1778001285 | 32.22° C | 27% | 1012.3 hPa | - | - | - | - |
| 1778000385 | 32.22° C | 27% | 1012 hPa | - | - | - | - |
| 1777999485 | 32.22° C | 28% | 1012.2 hPa | - | - | - | - |
| 1777998585 | 32.78° C | 27% | 1012.2 hPa | - | - | - | - |
| 1777997684 | 32.78° C | 29% | 1012.2 hPa | - | - | - | - |
| 1777996784 | 32.78° C | 29% | 1012.3 hPa | - | - | - | - |
| 1777995884 | 32.22° C | 29% | 1012.3 hPa | - | - | - | - |
| 1777994984 | 31.67° C | 29% | 1012.5 hPa | - | - | - | - |
| 1777994084 | 31.67° C | 28% | 1012.6 hPa | - | - | - | - |
| 1777993184 | 31.67° C | 29% | 1012.6 hPa | - | - | - | - |
| 1777992284 | 31.67° C | 29% | 1012.7 hPa | - | - | - | - |
| 1777991384 | 31.67° C | 29% | 1012.9 hPa | - | - | - | - |
| 1777990484 | 30.56° C | 30% | 1013.1 hPa | - | - | - | - |
* Rain since midnight (hover to see other rain measurements)
** Current wind speed in m/s (hover to see current wind gust speed)